Weather History for Monarch Pass, CO

Change the Weather History Date:

Thursday, December 1, 2011

  Actual Average (KGUC) Record (KGUC)
Temperature  
Mean Temperature 12 °F -  
Max Temperature 19 °F 30 °F 53 °F (2012)
Min Temperature 5 °F 6 °F -20 °F (2004)
Degree Days  
Heating Degree Days 53    
Moisture  
Dew Point 9 °F    
Average Humidity 86    
Maximum Humidity 93    
Minimum Humidity 63    
Precipitation  
Precipitation 0.00 in - - ()
Sea Level Pressure  
Sea Level Pressure 30.17 in    
Wind  
Wind Speed 33 mph (ENE)    
Max Wind Speed 48 mph    
Max Gust Speed 55 mph    
Visibility 8 miles    
Events Snow    
Averages and records for this station are not official NWS values.
T = Trace of Precipitation, MM = Missing Value Source: NWS Daily Summary

Daily Weather History Graph

Daily Weather History Graph

Search for Another Location

Airport:

Trip Planner

Search our weather history database for the weather conditions in past years. The results will help you decide how hot, cold, wet, or windy it might be!

Date:

Astronomy

Dec. 01, 2011 Rise Set
Actual Time 7:03 AM MST 4:44 PM MST
Civil Twilight 6:34 AM MST 5:14 PM MST
Nautical Twilight 6:01 AM MST 5:46 PM MST
Astronomical Twilight 5:29 AM MST 6:18 PM MST
Moon 11:53 AM MST 11:42 PM MST
Length of Visible Light 10h 39m
Length of Day
9h 41m
Waxing Crescent, 44% of the Moon is Illuminated
Dec 1
Waxing Crescent
Dec 2
First Quarter
Dec 10
Full
Dec 17
Last Quarter
Dec 24
New

Hourly Weather History & Observations

Time (MST) Temp. Windchill Dew Point Humidity Pressure Visibility Wind Dir Wind Speed Gust Speed Precip Events Conditions
12:04 AM 19.4 °F 1.1 °F 8.6 °F 63% 30.08 in 10.0 mi ENE 27.6 mph - N/A   Overcast
12:24 AM 19.4 °F 2.1 °F 10.4 °F 68% 30.08 in 10.0 mi ENE 24.2 mph - N/A   Overcast
12:44 AM 17.6 °F -1.9 °F 10.4 °F 73% 30.06 in 10.0 mi ENE 29.9 mph - N/A   Overcast
1:04 AM 17.6 °F -1.3 °F 10.4 °F 73% 30.07 in 10.0 mi ENE 27.6 mph - N/A   Overcast
1:24 AM 17.6 °F -0.6 °F 12.2 °F 79% 30.08 in 10.0 mi ENE 25.3 mph - N/A   Mostly Cloudy
2:04 AM 17.6 °F -1.0 °F 12.2 °F 79% 30.10 in 10.0 mi East 26.5 mph 36.8 mph N/A   Mostly Cloudy
2:24 AM 17.6 °F -1.3 °F 12.2 °F 79% 30.10 in 10.0 mi ENE 27.6 mph - N/A   Overcast
2:44 AM 17.6 °F -1.6 °F 14.0 °F 86% 30.10 in 10.0 mi ENE 28.8 mph 33.4 mph N/A   Overcast
3:24 AM 17.6 °F -1.6 °F 14.0 °F 86% 30.10 in 10.0 mi ENE 28.8 mph - N/A   Overcast
3:44 AM 15.8 °F -5.0 °F 14.0 °F 93% 30.10 in 10.0 mi ENE 32.2 mph 39.1 mph N/A   Overcast
4:04 AM 15.8 °F -4.1 °F 14.0 °F 93% 30.12 in 5.0 mi East 28.8 mph 35.7 mph N/A Snow Light Snow
4:24 AM 15.8 °F -4.1 °F 14.0 °F 93% 30.12 in 0.8 mi ENE 28.8 mph 42.6 mph N/A Snow Light Snow
4:44 AM 15.8 °F -3.4 °F 12.2 °F 86% 30.13 in 0.2 mi ENE 26.5 mph 36.8 mph N/A Snow Heavy Snow
5:04 AM 15.8 °F -5.2 °F 12.2 °F 86% 30.12 in 0.2 mi ENE 33.4 mph 43.7 mph N/A Snow Heavy Snow
5:24 AM 15.8 °F - 12.2 °F 86% 30.13 in - North - - N/A   Overcast
5:44 AM 15.8 °F - 12.2 °F 86% 30.13 in - North - - N/A   Overcast
6:04 AM 14.0 °F -7.7 °F 12.2 °F 93% 30.14 in - ENE 33.4 mph - N/A   Overcast
6:24 AM 14.0 °F -9.1 °F 12.2 °F 93% 30.12 in - East 39.1 mph 47.2 mph N/A   Overcast
6:44 AM 14.0 °F - 12.2 °F 93% 30.16 in - North - - N/A   Overcast
7:04 AM 14.0 °F -8.8 °F 12.2 °F 93% 30.14 in - ENE 38.0 mph 47.2 mph N/A   Overcast
7:24 AM 14.0 °F - 12.2 °F 93% 30.16 in - North - - N/A   Overcast
7:44 AM 14.0 °F -9.3 °F 12.2 °F 93% 30.16 in - ENE 40.3 mph 43.7 mph N/A   Overcast
8:04 AM 14.0 °F -9.1 °F 10.4 °F 86% 30.17 in - ENE 39.1 mph 44.9 mph N/A   Overcast
8:24 AM 12.2 °F -11.6 °F 10.4 °F 92% 30.18 in - ENE 39.1 mph 46.0 mph N/A   Overcast
8:44 AM 12.2 °F -12.3 °F 8.6 °F 85% 30.18 in - ENE 42.6 mph 50.6 mph N/A   Overcast
9:04 AM 10.4 °F -15.3 °F 8.6 °F 92% 30.16 in - ENE 44.9 mph 49.5 mph N/A   Overcast
9:24 AM 10.4 °F -15.3 °F 8.6 °F 92% 30.18 in - ENE 44.9 mph 51.8 mph N/A   Overcast
9:44 AM 12.2 °F -12.8 °F 8.6 °F 85% 30.18 in - ENE 44.9 mph - N/A   Overcast
10:04 AM 10.4 °F -15.5 °F 8.6 °F 92% 30.18 in - ENE 46.0 mph 54.1 mph N/A   Overcast
10:44 AM 10.4 °F -15.1 °F 8.6 °F 92% 30.20 in - ENE 43.7 mph 51.8 mph N/A   Overcast
11:04 AM 10.4 °F -15.5 °F 6.8 °F 85% 30.19 in - ENE 46.0 mph 54.1 mph N/A   Overcast
11:24 AM 10.4 °F -16.0 °F 6.8 °F 85% 30.18 in - ENE 48.3 mph 55.2 mph N/A   Overcast
11:44 AM 10.4 °F -16.0 °F 6.8 °F 85% 30.18 in - ENE 48.3 mph - N/A   Overcast
12:04 PM 10.4 °F -15.3 °F 6.8 °F 85% 30.18 in - ENE 44.9 mph 52.9 mph N/A   Overcast
12:24 PM 10.4 °F -14.8 °F 8.6 °F 92% 30.19 in - ENE 42.6 mph 48.3 mph N/A   Overcast
12:44 PM 10.4 °F -15.8 °F 6.8 °F 85% 30.17 in - ENE 47.2 mph 54.1 mph N/A   Overcast
1:04 PM 10.4 °F -14.8 °F 8.6 °F 92% 30.18 in - ENE 42.6 mph 49.5 mph N/A   Overcast
1:24 PM 10.4 °F -14.3 °F 8.6 °F 92% 30.19 in - ENE 40.3 mph 47.2 mph N/A   Overcast
1:44 PM 10.4 °F -14.3 °F 8.6 °F 92% 30.18 in - ENE 40.3 mph 48.3 mph N/A   Overcast
2:04 PM 12.2 °F -11.8 °F 8.6 °F 85% 30.19 in - ENE 40.3 mph 47.2 mph N/A   Overcast
2:24 PM 10.4 °F -14.1 °F 8.6 °F 92% 30.19 in - ENE 39.1 mph 42.6 mph N/A   Overcast
2:44 PM 10.4 °F -13.5 °F 8.6 °F 92% 30.21 in - ENE 36.8 mph 44.9 mph N/A   Overcast
3:04 PM 10.4 °F -14.1 °F 6.8 °F 85% 30.21 in - ENE 39.1 mph 42.6 mph N/A   Overcast
3:24 PM 10.4 °F -13.0 °F 6.8 °F 85% 30.21 in - ENE 34.5 mph 42.6 mph N/A   Overcast
3:44 PM 8.6 °F -16.3 °F 5.0 °F 85% 30.21 in - ENE 38.0 mph 43.7 mph N/A   Overcast
4:04 PM 8.6 °F - 5.0 °F 85% 30.21 in - North - - N/A   Overcast
4:24 PM 8.6 °F -16.0 °F 5.0 °F 85% 30.22 in - ENE 36.8 mph 41.4 mph N/A   Overcast
4:44 PM 8.6 °F -15.7 °F 5.0 °F 85% 30.22 in - ENE 35.7 mph 39.1 mph N/A   Overcast
5:04 PM 8.6 °F -16.3 °F 3.2 °F 79% 30.22 in - ENE 38.0 mph - N/A   Overcast
5:24 PM 6.8 °F -17.6 °F 3.2 °F 85% 30.24 in - ENE 33.4 mph - N/A   Overcast
5:44 PM 6.8 °F -17.6 °F 3.2 °F 85% 30.24 in - ENE 33.4 mph - N/A   Overcast
6:04 PM 5.0 °F -18.7 °F 3.2 °F 92% 30.25 in - ENE 28.8 mph 33.4 mph N/A   Overcast
6:24 PM 6.8 °F -15.1 °F 3.2 °F 85% 30.26 in - ENE 25.3 mph - N/A   Overcast
6:44 PM 5.0 °F -16.2 °F 3.2 °F 92% 30.27 in - ENE 21.9 mph - N/A   Overcast
7:04 PM 6.8 °F -12.9 °F 3.2 °F 85% 30.29 in - ENE 19.6 mph - N/A   Overcast
7:24 PM 6.8 °F -12.4 °F 3.2 °F 85% 30.29 in - ENE 18.4 mph - N/A   Overcast
7:44 PM 6.8 °F -10.0 °F 3.2 °F 85% 30.30 in - ENE 13.8 mph - N/A   Overcast
8:04 PM 6.8 °F -8.6 °F 3.2 °F 85% 30.30 in - ENE 11.5 mph - N/A   Overcast
8:24 PM 6.8 °F -7.8 °F 3.2 °F 85% 30.30 in - ENE 10.4 mph - N/A   Overcast
8:44 PM 6.8 °F -4.8 °F 3.2 °F 85% 30.30 in - ENE 6.9 mph - N/A   Overcast
9:24 PM 8.6 °F -4.7 °F 5.0 °F 85% 30.30 in - East 9.2 mph - N/A   Unknown
10:04 PM 15.8 °F 5.1 °F 12.2 °F 86% 30.30 in - ESE 8.1 mph 17.3 mph N/A   Unknown
10:24 PM 14.0 °F 3.9 °F 12.2 °F 93% 30.30 in - South 6.9 mph 17.3 mph N/A   Unknown
10:44 PM 14.0 °F 2.9 °F 12.2 °F 93% 30.30 in - WSW 8.1 mph - N/A   Overcast
11:04 PM 14.0 °F 2.9 °F 12.2 °F 93% 30.30 in - West 8.1 mph 16.1 mph N/A   Unknown
11:24 PM 14.0 °F -0.8 °F 12.2 °F 93% 30.30 in - SW 13.8 mph 17.3 mph N/A   Unknown
11:44 PM 14.0 °F -0.8 °F 12.2 °F 93% 30.28 in - SW 13.8 mph - N/A   Unknown